This is the latest recevied weather packets stored in our database for station/object W3EJE-13. If no packets are shown the sender has not sent any weather packets the latest 10 day(s).
| Time | Temp. | Humidity | Pressure | Rain* | Wind** | Luminosity | Snow |
|---|---|---|---|---|---|---|---|
| 1777480391 | 13.89° C | 99% | 1011.3 hPa | 0 mm | - | 92 W/m² | - |
| 1777480087 | 13.89° C | 99% | 1011.2 hPa | 0 mm | - | 99 W/m² | - |
| 1777479784 | 13.89° C | 99% | 1011.4 hPa | 0 mm | - | 105 W/m² | - |
| 1777479481 | 13.89° C | 99% | 1011.5 hPa | 0 mm | - | 105 W/m² | - |
| 1777479177 | 14.44° C | 99% | 1011.9 hPa | 0 mm | - | 120 W/m² | - |
| 1777478875 | 13.89° C | 99% | 1011.9 hPa | 1.78 mm | - | 133 W/m² | - |
| 1777478571 | 13.89° C | 99% | 1012 hPa | 1.78 mm | - | 135 W/m² | - |
| 1777478268 | 14.44° C | 99% | 1012.3 hPa | 0 mm | - | 128 W/m² | - |
| 1777477964 | 13.89° C | 99% | 1012.3 hPa | 1.27 mm | - | 171 W/m² | - |
| 1777477660 | 13.89° C | 99% | 1012.4 hPa | 1.27 mm | - | 112 W/m² | - |
| 1777477357 | 13.89° C | 99% | 1012.4 hPa | 0 mm | - | 109 W/m² | - |
| 1777477053 | 13.89° C | 99% | 1012.5 hPa | 0 mm | - | 114 W/m² | - |
| 1777476751 | 13.89° C | 99% | 1012.9 hPa | 0 mm | - | 100 W/m² | - |
| 1777476447 | 13.33° C | 99% | 1012.8 hPa | 1.78 mm | - | 104 W/m² | - |
| 1777476144 | 13.33° C | 99% | 1013 hPa | 1.27 mm | - | 89 W/m² | - |
| 1777475840 | 13.33° C | 99% | 1013.4 hPa | 3.05 mm | - | 80 W/m² | - |
| 1777475536 | 12.78° C | 99% | 1013.4 hPa | 3.05 mm | - | 73 W/m² | - |
| 1777475232 | 12.78° C | 99% | 1013.6 hPa | 6.1 mm | - | 65 W/m² | - |
| 1777474928 | 13.33° C | 99% | 1013.6 hPa | 6.1 mm | - | 58 W/m² | - |
| 1777474624 | 13.33° C | 99% | 1013.6 hPa | 4.83 mm | - | 46 W/m² | - |
| 1777474321 | 13.33° C | 99% | 1013.8 hPa | 4.83 mm | - | 32 W/m² | - |
| 1777474017 | 13.33° C | 99% | 1014.1 hPa | 3.05 mm | - | 26 W/m² | - |
| 1777473715 | 13.33° C | 99% | 1014.1 hPa | 3.05 mm | - | 21 W/m² | - |
| 1777473411 | 13.33° C | 99% | 1014.1 hPa | 14.99 mm | - | 12 W/m² | - |
| 1777473107 | 13.33° C | 99% | 1013.8 hPa | 16.76 mm | - | 7 W/m² | - |
* Rain latest hour (hover to see other rain measurements)
** Current wind speed in m/s (hover to see current wind gust speed)